Location: ??????
(55.6500°N, 37.8000°E)
Time: 15:16:27
(UTC+00:00)

NOAA 11 - Pass Details

Date: 14 April 2024
Orbit: 833 x 848 km, 98.5° (Epoch: 18 May)

Event Time Altitude Azimuth Distance (km) Brightness Sun altitude
Rises 01:17:13 0° 16° (NNE) 3,398 8.2 -9.6°
Reaches altitude 10° 01:19:35 10° 17° (NNE) 2,461 7.4 -9.3°
Maximum altitude 01:25:04 84° 106° (ESE) 850 4.3 -8.6°
Drops below altitude 10° 01:30:31 10° 195° (SSW) 2,452 6.2 -8.0°
Sets 01:32:53 0° 196° (SSW) 3,385 6.9 -7.7°
